FENGYUN 1C DEB, 32314

Orbit data source: Space-Track

FENGYUN 1C DEB, 32314 is space debris in SSO originally from a launch on Mon, 10 May 1999 UTC launched from the Taiyaun Space Center, China (TSC). Fengyun 1C debris stems from the Chinese weather satellite Fengyun-1C, which was intentionally destroyed by a Chinese anti-satellite missile in 2007. This event dramatically increased the amount of space debris, with thousands of trackable fragments posing hazards to satellites and human spaceflight. The Fengyun 1C debris cloud has become a focal point in discussions about space sustainability and the need for international regulations to prevent the creation of new debris.

Loading next visibility...
Identifier
32314, 1999-025CXF
Orbit
SSO
Country
Flag of CNCN / PRC
Related business
Manufacturer
Unknown
Mission
Spacecraft
Bus & Motor
Unknown
Mass
Unknown
Launch date (UTC)
1999-05-10 (27 years ago)
Launch vehicle
Unknown
Launch site
Taiyaun Space Center, China (TSC)
Object type
Payload
Rocket body
Debris
Shape & HBR
Unknown shape, 0.1 m
Radar Cross Section
Small (<0.1 m²)

Expand to show TLE details & history
Last TLE update: 1 week ago

TLE from 1 week ago
0 FENGYUN 1C DEB
1 32314U 99025CXF 25343.55282576  .00020854  00000-0  23179-2 0  9998
2 32314  98.8627  88.2704 0149391 167.7932 192.6962 14.79358552973830
Epoch: 2025-12-09T13:16Z
TLE epoch observation values (Epoch: 2025-12-09T13:16:04.145Z)
Latitude
0.00001°
Longitude
170.71727°
Altitude
736.591 km
Speed
7.432 km/s
True Right ascension
05h 53m 04s
True Declination
0° 00' 00"
Sunlit
Object was in full shadow at epoch
Visualization orbit readout
Latitude
Unknown
Longitude
Unknown
Altitude
Unknown
Speed
Unknown
Apparent Right ascension
Unknown
Apparent Declination
Unknown
Sunlit
N/A
Visualization observer readout
Local Sidereal Time
20:58:17
Azimuth
Unknown
Elevation
Unknown
Doppler factor
Unknown
Orbital elements
Apogee altitude
733.108 km
Perigee altitude
523.764 km
Semi-major axis
7,006.573 km
Eccentricity
0.01494
Inclination
98.8627°
RAAN
88.2704°
Arg. of periapsis
167.7932°
True anomaly
192.3267°
Mean anomaly
192.6962°
Eccentric anomaly
192.51078°
Mean motion
3.70071 °/min
Orbital period
97.28 mins
BSTAR
0.0023179
Loading maneuver chart data...
Computing Atmospheric mass density...

Documentation

Showing up to 5 results
|